Time,TemperatureF,DewpointF,PressureIn,WindDirection,WindDirectionDegrees,WindSpeedMPH,WindSpeedGustMPH,Humidity,HourlyPrecipIn,Conditions,Clouds,dailyrainin,SolarRadiationWatts/m^2,SoftwareType,DateUTC
2013-04-24 00:02:00,30.0,18.0,-100.00,West,265,6.0,8.0,61,0.00,,,0.17,0.000000,,2013-04-24 05:02:00,
2013-04-24 00:32:00,29.0,19.0,-100.00,WSW,252,3.0,6.0,66,0.00,,,0.17,0.000000,,2013-04-24 05:32:00,
2013-04-24 00:42:00,29.0,19.0,-100.00,WSW,252,3.0,6.0,66,0.00,,,0.17,0.000000,,2013-04-24 05:42:00,
2013-04-24 00:52:00,29.0,19.0,-100.00,WSW,252,3.0,6.0,66,0.00,,,0.17,0.000000,,2013-04-24 05:52:00,
2013-04-24 01:02:00,29.0,19.0,-100.00,WSW,252,3.0,6.0,66,0.00,,,0.17,0.000000,,2013-04-24 06:02:00,
2013-04-24 01:33:00,25.0,19.0,-100.00,WSW,246,2.0,4.0,76,0.00,,,0.17,0.000000,,2013-04-24 06:33:00,
2013-04-24 01:42:00,25.0,19.0,-100.00,WSW,246,2.0,4.0,76,0.00,,,0.17,0.000000,,2013-04-24 06:42:00,
2013-04-24 01:52:00,25.0,19.0,-100.00,WSW,246,2.0,4.0,76,0.00,,,0.17,0.000000,,2013-04-24 06:52:00,
2013-04-24 02:02:00,25.0,19.0,-100.00,WSW,246,2.0,4.0,76,0.00,,,0.17,0.000000,,2013-04-24 07:02:00,
2013-04-24 02:32:00,22.0,18.0,-100.00,West,260,2.0,3.0,84,0.00,,,0.17,0.000000,,2013-04-24 07:32:00,
2013-04-24 02:42:00,22.0,18.0,-100.00,West,260,2.0,3.0,84,0.00,,,0.17,0.000000,,2013-04-24 07:42:00,
2013-04-24 02:52:00,22.0,18.0,-100.00,West,260,2.0,3.0,84,0.00,,,0.17,0.000000,,2013-04-24 07:52:00,
2013-04-24 03:02:00,22.0,18.0,-100.00,West,260,2.0,3.0,84,0.00,,,0.17,0.000000,,2013-04-24 08:02:00,
2013-04-24 03:33:00,21.0,17.0,-100.00,WSW,246,2.0,2.0,86,0.00,,,0.17,0.000000,,2013-04-24 08:33:00,
2013-04-24 03:42:00,21.0,17.0,-100.00,WSW,246,2.0,2.0,86,0.00,,,0.17,0.000000,,2013-04-24 08:42:00,
2013-04-24 03:52:00,21.0,17.0,-100.00,WSW,246,2.0,2.0,86,0.00,,,0.17,0.000000,,2013-04-24 08:52:00,
2013-04-24 04:02:00,21.0,17.0,-100.00,WSW,246,2.0,2.0,86,0.00,,,0.17,0.000000,,2013-04-24 09:02:00,
2013-04-24 04:33:00,21.0,17.0,-100.00,South,179,1.0,4.0,86,0.00,,,0.17,0.000000,,2013-04-24 09:33:00,
2013-04-24 04:42:00,21.0,17.0,-100.00,South,179,1.0,4.0,86,0.00,,,0.17,0.000000,,2013-04-24 09:42:00,
2013-04-24 04:53:00,21.0,17.0,-100.00,South,179,1.0,4.0,86,0.00,,,0.17,0.000000,,2013-04-24 09:53:00,
2013-04-24 05:02:00,21.0,17.0,-100.00,South,179,1.0,4.0,86,0.00,,,0.17,0.000000,,2013-04-24 10:02:00,
2013-04-24 05:33:00,20.0,17.0,-100.00,West,275,2.0,3.0,89,0.00,,,0.17,0.000000,,2013-04-24 10:33:00,
2013-04-24 05:42:00,20.0,17.0,-100.00,West,275,2.0,3.0,89,0.00,,,0.17,0.000000,,2013-04-24 10:42:00,
2013-04-24 05:53:00,20.0,17.0,-100.00,West,275,2.0,3.0,89,0.00,,,0.17,0.000000,,2013-04-24 10:53:00,
2013-04-24 06:02:00,20.0,17.0,-100.00,West,275,2.0,3.0,89,0.00,,,0.17,0.000000,,2013-04-24 11:02:00,
2013-04-24 06:32:00,22.0,18.0,-100.00,SSE,161,3.0,4.0,85,0.00,,,0.17,0.000000,,2013-04-24 11:32:00,
2013-04-24 06:43:00,22.0,18.0,-100.00,SSE,161,3.0,4.0,85,0.00,,,0.17,0.000000,,2013-04-24 11:43:00,
2013-04-24 06:52:00,22.0,18.0,-100.00,SSE,161,3.0,4.0,85,0.00,,,0.17,0.000000,,2013-04-24 11:52:00,
2013-04-24 07:02:00,22.0,18.0,-100.00,SSE,161,3.0,4.0,85,0.00,,,0.17,0.000000,,2013-04-24 12:02:00,
2013-04-24 07:32:00,25.0,21.0,-100.00,South,171,3.0,4.0,83,0.00,,,-99.99,35.000000,,2013-04-24 12:32:00,
2013-04-24 07:42:00,25.0,21.0,-100.00,South,171,3.0,4.0,83,0.00,,,-99.99,35.000000,,2013-04-24 12:42:00,
2013-04-24 07:52:00,25.0,21.0,-100.00,South,171,3.0,4.0,83,0.00,,,-99.99,35.000000,,2013-04-24 12:52:00,
2013-04-24 08:01:00,25.0,21.0,-100.00,South,171,3.0,4.0,83,0.00,,,-99.99,35.000000,,2013-04-24 13:01:00,
2013-04-24 10:33:00,40.0,27.0,-100.00,South,180,6.0,9.0,60,-99.99,,,0.06,664.000000,,2013-04-24 15:33:00,
2013-04-24 10:43:00,40.0,27.0,-100.00,South,180,6.0,9.0,60,-99.99,,,0.06,664.000000,,2013-04-24 15:43:00,
2013-04-24 10:53:00,40.0,27.0,-100.00,South,180,6.0,9.0,60,-99.99,,,0.06,664.000000,,2013-04-24 15:53:00,
2013-04-24 11:03:00,40.0,27.0,-100.00,South,180,6.0,9.0,60,-99.99,,,0.06,664.000000,,2013-04-24 16:03:00,
2013-04-24 12:32:00,46.0,26.0,-100.00,SW,221,10.0,16.0,46,-99.99,,,0.00,808.000000,,2013-04-24 17:32:00,
2013-04-24 12:42:00,46.0,26.0,-100.00,SW,221,10.0,16.0,46,-99.99,,,0.00,808.000000,,2013-04-24 17:42:00,
2013-04-24 12:52:00,46.0,26.0,-100.00,SW,221,10.0,16.0,46,-99.99,,,0.00,808.000000,,2013-04-24 17:52:00,
2013-04-24 13:02:00,46.0,26.0,-100.00,SW,221,10.0,16.0,46,-99.99,,,0.00,808.000000,,2013-04-24 18:02:00,
2013-04-24 13:33:00,48.0,25.0,-100.00,WSW,239,11.0,29.0,40,0.00,,,0.00,784.000000,,2013-04-24 18:33:00,
2013-04-24 13:43:00,48.0,25.0,-100.00,WSW,239,11.0,29.0,40,0.00,,,0.00,784.000000,,2013-04-24 18:43:00,
2013-04-24 13:52:00,48.0,25.0,-100.00,WSW,239,11.0,29.0,40,0.00,,,0.00,784.000000,,2013-04-24 18:52:00,
2013-04-24 14:02:00,48.0,25.0,-100.00,WSW,239,11.0,29.0,40,0.00,,,0.00,784.000000,,2013-04-24 19:02:00,
2013-04-24 14:32:00,48.0,25.0,-100.00,WSW,244,14.0,25.0,41,0.00,,,0.00,526.000000,,2013-04-24 19:32:00,
2013-04-24 14:42:00,48.0,25.0,-100.00,WSW,244,14.0,25.0,41,0.00,,,0.00,526.000000,,2013-04-24 19:42:00,
2013-04-24 14:52:00,48.0,25.0,-100.00,WSW,244,14.0,25.0,41,0.00,,,0.00,526.000000,,2013-04-24 19:52:00,
2013-04-24 15:02:00,48.0,25.0,-100.00,WSW,244,14.0,25.0,41,0.00,,,0.00,526.000000,,2013-04-24 20:02:00,
2013-04-24 15:32:00,48.0,29.0,-100.00,WSW,253,14.0,23.0,47,0.00,,,0.00,493.000000,,2013-04-24 20:32:00,
2013-04-24 15:42:00,48.0,29.0,-100.00,WSW,253,14.0,23.0,47,0.00,,,0.00,493.000000,,2013-04-24 20:42:00,
2013-04-24 15:52:00,48.0,29.0,-100.00,WSW,253,14.0,23.0,47,0.00,,,0.00,493.000000,,2013-04-24 20:52:00,
2013-04-24 16:02:00,48.0,29.0,-100.00,WSW,253,14.0,23.0,47,0.00,,,0.00,493.000000,,2013-04-24 21:02:00,
2013-04-24 16:33:00,44.0,30.0,-100.00,West,277,14.0,24.0,57,0.00,,,0.00,372.000000,,2013-04-24 21:33:00,
2013-04-24 16:42:00,44.0,30.0,-100.00,West,277,14.0,24.0,57,0.00,,,0.00,372.000000,,2013-04-24 21:42:00,
2013-04-24 16:52:00,44.0,30.0,-100.00,West,277,14.0,24.0,57,0.00,,,0.00,372.000000,,2013-04-24 21:52:00,
2013-04-24 17:03:00,44.0,30.0,-100.00,West,277,14.0,24.0,57,0.00,,,0.00,372.000000,,2013-04-24 22:03:00,
2013-04-24 17:33:00,44.0,29.0,-100.00,WSW,252,9.0,21.0,55,0.00,,,0.00,242.000000,,2013-04-24 22:33:00,
2013-04-24 17:42:00,44.0,29.0,-100.00,WSW,252,9.0,21.0,55,0.00,,,0.00,242.000000,,2013-04-24 22:42:00,
2013-04-24 17:52:00,44.0,29.0,-100.00,WSW,252,9.0,21.0,55,0.00,,,0.00,242.000000,,2013-04-24 22:52:00,
2013-04-24 18:02:00,44.0,29.0,-100.00,WSW,252,9.0,21.0,55,0.00,,,0.00,242.000000,,2013-04-24 23:02:00,
2013-04-24 18:32:00,43.0,28.0,-100.00,West,280,10.0,18.0,55,0.00,,,0.00,219.000000,,2013-04-24 23:32:00,
2013-04-24 18:42:00,43.0,28.0,-100.00,West,280,10.0,18.0,55,0.00,,,0.00,219.000000,,2013-04-24 23:42:00,
2013-04-24 18:52:00,43.0,28.0,-100.00,West,280,10.0,18.0,55,0.00,,,0.00,219.000000,,2013-04-24 23:52:00,
2013-04-24 19:01:00,43.0,28.0,-100.00,West,280,10.0,18.0,55,0.00,,,0.00,219.000000,,2013-04-25 00:01:00,
2013-04-24 19:32:00,42.0,26.0,-100.00,West,278,7.0,15.0,53,0.00,,,-99.99,127.000000,,2013-04-25 00:32:00,
2013-04-24 19:42:00,42.0,26.0,-100.00,West,278,7.0,15.0,53,0.00,,,-99.99,127.000000,,2013-04-25 00:42:00,
2013-04-24 19:52:00,42.0,26.0,-100.00,West,278,7.0,15.0,53,0.00,,,-99.99,127.000000,,2013-04-25 00:52:00,
2013-04-24 20:01:00,42.0,26.0,-100.00,West,278,7.0,15.0,53,0.00,,,-99.99,127.000000,,2013-04-25 01:01:00,
2013-04-24 20:32:00,39.0,27.0,-100.00,North,3,3.0,11.0,63,0.00,,,0.00,75.000000,,2013-04-25 01:32:00,
2013-04-24 20:42:00,39.0,27.0,-100.00,North,3,3.0,11.0,63,0.00,,,0.00,75.000000,,2013-04-25 01:42:00,
2013-04-24 20:52:00,39.0,27.0,-100.00,North,3,3.0,11.0,63,0.00,,,0.00,75.000000,,2013-04-25 01:52:00,
2013-04-24 21:02:00,39.0,27.0,-100.00,North,3,3.0,11.0,63,0.00,,,0.00,75.000000,,2013-04-25 02:02:00,
2013-04-24 21:32:00,36.0,28.0,-100.00,South,178,1.0,3.0,72,0.00,,,0.00,1.000000,,2013-04-25 02:32:00,
2013-04-24 21:42:00,36.0,28.0,-100.00,South,178,1.0,3.0,72,0.00,,,0.00,1.000000,,2013-04-25 02:42:00,
2013-04-24 21:52:00,36.0,28.0,-100.00,South,178,1.0,3.0,72,0.00,,,0.00,1.000000,,2013-04-25 02:52:00,
2013-04-24 22:02:00,36.0,28.0,-100.00,South,178,1.0,3.0,72,0.00,,,0.00,1.000000,,2013-04-25 03:02:00,
2013-04-24 22:33:00,34.0,29.0,-100.00,SW,217,2.0,5.0,81,0.00,,,0.00,0.000000,,2013-04-25 03:33:00,
2013-04-24 22:43:00,34.0,29.0,-100.00,SW,217,2.0,5.0,81,0.00,,,0.00,0.000000,,2013-04-25 03:43:00,
2013-04-24 22:52:00,34.0,29.0,-100.00,SW,217,2.0,5.0,81,0.00,,,0.00,0.000000,,2013-04-25 03:52:00,
2013-04-24 23:03:00,34.0,29.0,-100.00,SW,217,2.0,5.0,81,0.00,,,0.00,0.000000,,2013-04-25 04:03:00,
2013-04-24 23:33:00,30.0,27.0,-100.00,WSW,241,3.0,5.0,87,0.00,,,0.00,0.000000,,2013-04-25 04:33:00,
2013-04-24 23:43:00,30.0,27.0,-100.00,WSW,241,3.0,5.0,87,0.00,,,0.00,0.000000,,2013-04-25 04:43:00,
2013-04-24 23:52:00,30.0,27.0,-100.00,WSW,241,3.0,5.0,87,0.00,,,0.00,0.000000,,2013-04-25 04:52:00,